Tracking 19489 objects as of 22-Jan-2019
HD Live streaming from Space Station
objects crossing your sky now

FENGYUN 1C DEB

Track FENGYUN 1C DEB now!
10-day predictions


NORAD ID: 30472
Int'l Code: 1999-025AGK
Perigee: 770.6 km
Apogee: 854.6 km
Inclination: 98.8 °
Period: 101.0 minutes
Semi major axis: 7183 km
RCS: 0.025 m2 (small)
Launch date: May 10, 1999
Source: People's Republic of China (PRC)
Launch site: Taiyaun Space Center, China (TSC)

Note: This is SATELLITE DEBRIS
aabbcc
Your satellite tracking list
Your tracking list is empty




NASA's NSSDC Master Catalog

Two Line Element Set (TLE):
1 30472U 99025AGK 19021.42749552 +.00000731 +00000-0 +32007-3 0  9998
2 30472 098.7989 078.0831 0058453 279.3680 202.1538 14.25912562619986
Source of the keplerian elements: AFSPC